STARLINK-3095, 49160

Orbit data source: Space-Track

STARLINK-3095, 49160 is a payload satellite owned by SpaceX/Seattle (US) in LEO that was launched on Tue, 14 Sep 2021 UTC via an FALCON 9 launch vehicle from the Air Force Western Test Range (AFWTR). Payload-class satellites include a variety of spacecraft equipped with specific instruments for various scientific and technological missions. These include communications satellites like Starlink; space stations such as the ISS; scientific satellites like the Hubble; Earth observation satellites from companies like Planet Labs, Umbra, and HawkEye 360; GPS; miniature CubeSats for education and research; and military/defense satellites.

Loading next visibility...
Identifier
49160, 2021-082AG
Orbit
LEO
Country
Flag of USUS
Related business
Manufacturer
SpaceX/Seattle
Mission
Operational Commercial Communications
Bus & Motor
STARLINK, Unknown motor
Mass
297 kg wet, ~275 kg dry
Launch date (UTC)
2021-09-14 (5 years ago)
Launch vehicle
FALCON 9
Launch site
Air Force Western Test Range (AFWTR)
Object type
Payload
Rocket body
Debris
Shape & HBR
Box + 1 Pan, 10.1 m
Radar Cross Section
13.562 m², Large (>1 m²)

Expand to show TLE details & history
Last TLE update: 2 days ago

TLE from 2 days ago
0 STARLINK-3095
1 49160U 21082AG  26171.35324095  .00000519  00000-0  51272-4 0  9997
2 49160  69.9998  35.5879 0002953 268.1879  91.8942 14.98330713262427
Epoch: 2026-06-20T08:28Z
TLE epoch observation values (Epoch: 2026-06-20T08:28:40.018Z)
Latitude
0.00001°
Longitude
-0.14792°
Altitude
574.546 km
Speed
7.574 km/s
True Right ascension
02h 22m 21s
True Declination
0° 00' 00"
Sunlit
Object was in daylight at epoch
Visualization orbit readout
Latitude
Unknown
Longitude
Unknown
Altitude
Unknown
Speed
Unknown
Apparent Right ascension
Unknown
Apparent Declination
Unknown
Sunlit
N/A
Visualization observer readout
Local Sidereal Time
00:50:34
Azimuth
Unknown
Elevation
Unknown
Doppler factor
Unknown
Orbital elements
Apogee altitude
572.054 km
Perigee altitude
567.95 km
Semi-major axis
6,948.139 km
Eccentricity
0.0003
Inclination
69.9998°
RAAN
35.5879°
Arg. of periapsis
268.1879°
True anomaly
91.92802°
Mean anomaly
91.8942°
Eccentric anomaly
91.91111°
Mean motion
3.74749 °/min
Orbital period
96.06 mins
BSTAR
0.000051272
Loading maneuver chart data...
Computing Atmospheric mass density...

Documentation

Showing up to 5 results
|